Location: LC-39B
(28.6273°N, 80.6211°W)
Time: 10:38:05
(UTC+00:00)

ISS - Visible Passes

Search period start: 26 July 2017 00:00
Search period end: 05 August 2017 00:00
Orbit: 400 x 408 km, 51.6° (Epoch: 26 July)

Date Brightness Start Highest point End Pass type
(mag) Time Alt. Az. Time Alt. Az. Time Alt. Az.
26 Jul -0.2 01:48:58 10° NW 01:49:52 11° NW 01:50:47 10° NNW visible
26 Jul -2.0 09:58:22 13° WSW 09:58:29 13° SW 10:00:07 10° SSW visible
27 Jul -0.8 00:54:53 10° W 00:57:22 20° NW 00:59:52 10° N visible
